STARLINK-37715, 69126

Orbit data source: Space-Track

STARLINK-37715, 69126 is a payload satellite owned by SpaceX/Seattle (US) in SSO that was launched on Wed, 20 May 2026 UTC via an FALCON 9 launch vehicle from the Air Force Western Test Range (AFWTR). Payload-class satellites include a variety of spacecraft equipped with specific instruments for various scientific and technological missions. These include communications satellites like Starlink; space stations such as the ISS; scientific satellites like the Hubble; Earth observation satellites from companies like Planet Labs, Umbra, and HawkEye 360; GPS; miniature CubeSats for education and research; and military/defense satellites.

Loading next visibility...
Identifier
69126, 2026-110C
Orbit
SSO
Country
Flag of USUS
Related business
Manufacturer
SpaceX/Seattle
Mission
Operational spacecraft
Bus & Motor
STARLINK V2MO, Unknown motor
Mass
575 kg wet, ~530 kg dry
Launch date (UTC)
2026-05-20 (1 month ago)
Launch vehicle
FALCON 9
Launch site
Air Force Western Test Range (AFWTR)
Object type
Payload
Rocket body
Debris
Shape & HBR
Unknown shape, 14.5 m
Radar Cross Section
Large (>1 m²)

Expand to show TLE details & history
Last TLE update: 10 hours ago

TLE from 10 hours ago
0 STARLINK-37715
1 69126U 26110C   26171.43630564  .00018873  00000-0  58525-3 0  9997
2 69126  97.2861   7.7483 0000893 109.6995 250.4344 15.33456602  6101
Epoch: 2026-06-20T10:28Z
TLE epoch observation values (Epoch: 2026-06-20T10:28:16.807Z)
Latitude
-0.00003°
Longitude
-57.97268°
Altitude
468.825 km
Speed
7.632 km/s
True Right ascension
00h 30m 59s
True Declination
0° 00' 00"
Sunlit
Object was in daylight at epoch
Visualization orbit readout
Latitude
Unknown
Longitude
Unknown
Altitude
Unknown
Speed
Unknown
Apparent Right ascension
Unknown
Apparent Declination
Unknown
Sunlit
N/A
Visualization observer readout
Local Sidereal Time
07:16:03
Azimuth
Unknown
Elevation
Unknown
Doppler factor
Unknown
Orbital elements
Apogee altitude
463.062 km
Perigee altitude
461.841 km
Semi-major axis
6,840.588 km
Eccentricity
0.00009
Inclination
97.2861°
RAAN
7.7483°
Arg. of periapsis
109.6995°
True anomaly
250.42476°
Mean anomaly
250.4344°
Eccentric anomaly
250.42958°
Mean motion
3.83622 °/min
Orbital period
93.84 mins
BSTAR
0.00058525
Loading maneuver chart data...
Computing Atmospheric mass density...
Loading historical data...
Loading historical data...
Loading historical data...
Loading historical data...
Loading historical data...
Loading historical data...
Loading historical data...

Documentation

Showing up to 5 results
|